This demonstration page uses our WeatherBlox Daily Observations layout. Learn more.

Left ArrowRight Arrow

34.02893, -84.19858

Hourly Observations for January 15, 2018

Temp ( °F °C ) Dew Point ( °F °C ) Humidity (%) Winds ( mph kmh ) Pressure ( in mb ) Visibility ( mi km ) Precip ( " mm )
12:53 am 00:53 Clear 25 -3.9 15 -9.4 66 66 Calm 30.50 1033 10 16 0.00 0.00
1:53 am 01:53 Mostly Cloudy 26 -3.3 17 -8.3 69 69 Calm 30.50 1033 10 16 0.00 0.00
2:53 am 02:53 Mostly Cloudy 27 -2.8 17 -8.3 66 66 VRB 3 6 30.48 1032 10 16 0.00 0.00
3:53 am 03:53 Clear 27 -2.8 16 -8.9 63 63 Calm 30.48 1032 10 16 0.00 0.00
4:53 am 04:53 Partly Cloudy 27 -2.8 17 -8.3 66 66 Calm 30.50 1033 10 16 0.00 0.00
5:53 am 05:53 Mostly Cloudy 27 -2.8 16 -8.9 63 63 Calm 30.50 1033 10 16 0.00 0.00
6:53 am 06:53 Partly Cloudy 27 -2.8 16 -8.9 63 63 VRB 5 7 30.52 1034 10 16 0.00 0.00
7:53 am 07:53 Mostly Sunny 26 -3.3 16 -8.9 66 66 VRB 3 6 30.55 1035 10 16 0.00 0.00
8:53 am 08:53 Sunny 28 -2.2 17 -8.3 63 63 E 6 9 30.55 1035 10 16 0.00 0.00
9:53 am 09:53 Mostly Sunny 31 -0.6 17 -8.3 56 56 VRB 5 7 30.57 1035 10 16 0.00 0.00
10:53 am 10:53 Sunny 34 1.1 17 -8.3 50 50 VRB 6 9 30.55 1035 10 16 0.00 0.00
11:53 am 11:53 Sunny 37 2.8 18 -7.8 46 46 SE 5 7 30.53 1034 10 16 0.00 0.00
12:53 pm 12:53 Sunny 39 3.9 18 -7.8 43 43 Calm 30.49 1032 10 16 0.00 0.00
1:53 pm 13:53 Sunny 43 6.1 19 -7.2 38 38 VRB 3 6 30.45 1031 10 16 0.00 0.00
2:53 pm 14:53 Sunny 45 7.2 21 -6.1 39 39 S 7 11 30.43 1031 10 16 0.00 0.00
3:53 pm 15:53 Sunny 45 7.2 21 -6.1 39 39 S 6 9 30.42 1030 10 16 0.00 0.00
4:53 pm 16:53 Sunny 45 7.2 22 -5.6 40 40 SSW 6 9 30.42 1030 10 16 0.00 0.00
5:53 pm 17:53 Clear 43 6.1 21 -6.1 42 42 SE 3 6 30.42 1030 10 16 0.00 0.00
6:53 pm 18:53 Clear 36 2.2 22 -5.6 57 57 Calm 30.43 1031 10 16 0.00 0.00
7:53 pm 19:53 Clear 34 1.1 23 -5 64 64 Calm 30.44 1031 10 16 0.00 0.00
8:53 pm 20:53 Clear 32 0 24 -4.4 73 73 Calm 30.46 1031 10 16 0.00 0.00
9:53 pm 21:53 Clear 31 -0.6 23 -5 72 72 Calm 30.46 1032 10 16 0.00 0.00
10:53 pm 22:53 Clear 32 0 22 -5.6 66 66 SSE 3 6 30.46 1032 10 16 0.00 0.00
11:53 pm 23:53 Clear 33 0.6 21 -6.1 61 61 SSE 3 6 30.45 1031 10 16 0.00 0.00

Powered by AerisWeather